FW6664 Weather Reports


Display with metric or nautical units.
time (UTC)temp
F
wind
direction
speed
MPH
gust
MPH
rain 1hr
in
rain 24hr
in
rain mn
in
humidity
%
barometer
mb
20260902034050 68 299 3.0 4.0 0.00 0.00 0.00 33 1017.0
20260902033832 68 299 3.0 0.0 0.00 0.00 0.00 33 1017.0
20260902033524 68 299 3.0 4.0 0.00 0.00 0.00 33 1017.0
20260902033331 68 299 3.0 0.0 0.00 0.00 0.00 33 1017.0
20260902033033 68 299 3.0 5.0 0.00 0.00 0.00 33 1017.0
20260902032827 69 299 4.0 0.0 0.00 0.00 0.00 33 1017.0
20260902032515 68 292 4.0 5.0 0.00 0.00 0.00 33 1017.0
20260902032404 69 291 6.0 0.0 0.00 0.00 0.00 33 1017.0
20260902032043 68 291 4.0 5.0 0.00 0.00 0.00 33 1017.0
20260902031840 69 291 4.0 0.0 0.00 0.00 0.00 33 1017.0
20260902031539 69 294 4.0 5.0 0.00 0.00 0.00 33 1017.0
20260902031341 69 302 6.0 0.0 0.00 0.00 0.00 33 1017.0
20260902031034 69 290 4.0 6.0 0.00 0.00 0.00 33 1017.0
20260902030838 70 289 4.0 0.0 0.00 0.00 0.00 33 1017.0
20260902030528 69 287 4.0 6.0 0.00 0.00 0.00 33 1017.0
20260902030337 70 293 5.0 0.0 0.00 0.00 0.00 33 1017.0
20260902030024 69 297 4.0 6.0 0.00 0.00 0.00 33 1017.0
20260902025834 70 282 3.0 0.0 0.00 0.00 0.00 33 1017.0
20260902025521 70 279 4.0 6.0 0.00 0.00 0.00 33 1017.0
20260902025333 70 275 6.0 0.0 0.00 0.00 0.00 33 1017.0
20260902025019 70 293 6.0 7.0 0.00 0.00 0.00 33 1017.0
20260902024831 71 287 6.0 0.0 0.00 0.00 0.00 33 1017.0
20260902024509 70 290 5.0 7.0 0.00 0.00 0.00 33 1017.0
20260902024325 71 288 6.0 0.0 0.00 0.00 0.00 33 1017.0
20260902024004 71 284 6.0 7.0 0.00 0.00 0.00 33 1017.0
20260902023843 71 274 9.0 0.0 0.00 0.00 0.00 33 1017.0
20260902023536 71 291 5.0 7.0 0.00 0.00 0.00 33 1017.0
20260902023341 72 288 7.0 0.0 0.00 0.00 0.00 33 1017.0
20260902023025 72 298 3.0 7.0 0.00 0.00 0.00 33 1017.0
20260902022834 72 275 4.0 0.0 0.00 0.00 0.00 33 1017.0
20260902022522 72 293 6.0 7.0 0.00 0.00 0.00 33 1017.0
20260902022352 73 295 6.0 0.0 0.00 0.00 0.00 33 1017.0
20260902022051 73 298 6.0 7.0 0.00 0.00 0.00 33 1017.0
20260902021827 73 271 7.0 0.0 0.00 0.00 0.00 33 1017.0
20260902021601 73 296 4.0 6.0 0.00 0.00 0.00 33 1017.0
20260902021342 74 275 3.0 0.0 0.00 0.00 0.00 33 1017.0
20260902021039 74 302 4.0 6.0 0.00 0.00 0.00 33 1017.0
20260902020839 74 305 3.0 0.0 0.00 0.00 0.00 33 1017.0
20260902020535 74 292 4.0 6.0 0.00 0.00 0.00 33 1017.0
20260902020336 75 286 6.0 0.0 0.00 0.00 0.00 33 1017.0
20260902020025 75 300 5.0 6.0 0.00 0.00 0.00 33 1017.0
20260902015852 76 287 9.0 0.0 0.00 0.00 0.00 33 1017.0
20260902015557 76 299 5.0 6.0 0.00 0.00 0.00 33 1017.0
20260902015349 76 287 5.0 0.0 0.00 0.00 0.00 33 1017.0
20260902015032 76 279 3.0 6.0 0.00 0.00 0.00 33 1017.0
20260902014827 77 285 4.0 0.0 0.00 0.00 0.00 33 1017.0
20260902014536 77 291 5.0 6.0 0.00 0.00 0.00 33 1017.0
20260902014326 77 294 4.0 0.0 0.00 0.00 0.00 33 1017.0
20260902014028 77 292 4.0 5.0 0.00 0.00 0.00 33 1017.0
20260902013827 78 294 6.0 0.0 0.00 0.00 0.00 33 1017.0
20260902013518 77 269 3.0 6.0 0.00 0.00 0.00 33 1017.0
20260902013324 78 276 6.0 0.0 0.00 0.00 0.00 33 1017.0
20260902013013 77 291 3.0 6.0 0.00 0.00 0.00 33 1017.0
20260902012840 78 281 3.0 0.0 0.00 0.00 0.00 33 1017.0
20260902012506 77 306 4.0 6.0 0.00 0.00 0.00 33 1017.0
20260902012336 78 261 5.0 0.0 0.00 0.00 0.00 33 1017.0
20260902012058 78 290 5.0 8.0 0.00 0.00 0.00 33 1017.0
20260902012002 78 269 5.0 8.0 0.00 0.00 0.00 33 1017.0
20260902011855 78 296 6.0 0.0 0.00 0.00 0.00 33 1017.0
20260902011537 78 286 4.0 8.0 0.00 0.00 0.00 33 1017.0
20260902011329 79 293 9.0 0.0 0.00 0.00 0.00 33 1017.0
20260902011023 79 293 6.0 10.0 0.00 0.00 0.00 33 1017.0
20260902010824 79 266 3.0 0.0 0.00 0.00 0.00 33 1017.0
20260902010519 79 264 5.0 10.0 0.00 0.00 0.00 33 1017.0
20260902010324 80 290 7.0 0.0 0.00 0.00 0.00 33 1017.0
20260902010012 80 282 6.0 6.0 0.00 0.00 0.00 33 1017.0
20260902005840 80 306 6.0 0.0 0.00 0.00 0.00 33 1017.0
20260902005506 80 291 6.0 6.0 0.00 0.00 0.00 33 1017.0
20260902005336 81 295 7.0 0.0 0.00 0.00 0.00 33 1017.0
20260902005037 80 272 4.0 6.0 0.00 0.00 0.00 33 1017.0
20260902004832 81 277 6.0 0.0 0.00 0.00 0.00 33 1017.0
20260902004539 80 279 4.0 7.0 0.00 0.00 0.00 33 1017.0
20260902004326 81 293 3.0 0.0 0.00 0.00 0.00 33 1017.0
20260902004023 80 298 6.0 7.0 0.00 0.00 0.00 33 1017.0
20260902003844 81 302 7.0 0.0 0.00 0.00 0.00 33 1017.0
20260902003518 81 292 5.0 6.0 0.00 0.00 0.00 33 1017.0
20260902003341 82 298 2.0 0.0 0.00 0.00 0.00 33 1017.0
20260902003011 81 291 4.0 6.0 0.00 0.00 0.00 33 1017.0
20260902002835 82 296 4.0 0.0 0.00 0.00 0.00 33 1017.0
20260902002600 81 297 3.0 8.0 0.00 0.00 0.00 33 1017.0
20260902002504 81 282 3.0 8.0 0.00 0.00 0.00 33 1017.0
20260902002333 82 299 5.0 0.0 0.00 0.00 0.00 33 1017.0
20260902002056 81 285 4.0 8.0 0.00 0.00 0.00 33 1017.0
20260902001830 82 230 4.0 0.0 0.00 0.00 0.00 33 1017.0
20260902001552 82 277 4.0 8.0 0.00 0.00 0.00 33 1017.0
20260902001328 82 292 7.0 0.0 0.00 0.00 0.00 33 1017.0
20260902001046 81 254 3.0 7.0 0.00 0.00 0.00 33 1017.0
20260902000829 82 277 11.0 0.0 0.00 0.00 0.00 33 1017.0
20260902000542 81 287 5.0 7.0 0.00 0.00 0.00 33 1017.0
20260902000349 82 290 8.0 0.0 0.00 0.00 0.00 33 1017.0
20260902000021 81 261 6.0 7.0 0.00 0.00 0.00 33 1017.0
20260901235824 81 261 4.0 0.0 0.00 0.00 0.00 33 1017.0
20260901235511 81 273 6.0 6.0 0.00 0.00 0.00 33 1017.0
20260901235342 82 215 9.0 0.0 0.00 0.00 0.00 33 1017.0
20260901235006 81 270 6.0 9.0 0.00 0.00 0.00 33 1017.0
20260901234841 82 227 5.0 0.0 0.00 0.00 0.00 33 1017.0
20260901234614 81 282 6.0 9.0 0.00 0.00 0.00 33 1017.0
20260901234335 82 277 8.0 0.0 0.00 0.00 0.00 33 1017.0
20260901234051 81 256 4.0 6.0 0.00 0.00 0.00 33 1017.0
20260901233854 82 284 7.0 0.0 0.00 0.00 0.00 33 1017.0
20260901233527 82 210 3.0 8.0 0.00 0.00 0.00 33 1017.0
20260901233332 82 264 9.0 0.0 0.00 0.00 0.00 33 1017.0
20260901233019 82 276 7.0 12.0 0.00 0.00 0.00 33 1017.0
20260901232826 83 212 6.0 0.0 0.00 0.00 0.00 33 1017.0
20260901232549 82 270 8.0 12.0 0.00 0.00 0.00 33 1017.0
20260901232342 83 282 3.0 0.0 0.00 0.00 0.00 33 1017.0
20260901232042 82 264 4.0 13.0 0.00 0.00 0.00 33 1017.0
20260901231838 83 273 8.0 0.0 0.00 0.00 0.00 33 1017.0
20260901231547 83 267 6.0 13.0 0.00 0.00 0.00 33 1017.0
20260901231334 83 276 5.0 0.0 0.00 0.00 0.00 33 1017.0
20260901231032 83 288 10.0 13.0 0.00 0.00 0.00 33 1017.0
20260901230830 84 271 9.0 0.0 0.00 0.00 0.00 33 1017.0
20260901230524 83 275 3.0 8.0 0.00 0.00 0.00 33 1017.0
20260901230327 83 293 5.0 0.0 0.00 0.00 0.00 33 1017.0
20260901230020 83 258 6.0 10.0 0.00 0.00 0.00 33 1017.0
20260901225844 83 301 2.0 0.0 0.00 0.00 0.00 33 1017.0
20260901225512 83 277 6.0 10.0 0.00 0.00 0.00 33 1017.0
20260901225340 83 289 14.0 0.0 0.00 0.00 0.00 33 1017.0
20260901225009 83 267 5.0 9.0 0.00 0.00 0.00 33 1017.0
20260901224838 83 292 11.0 0.0 0.00 0.00 0.00 33 1017.0
20260901224600 83 281 8.0 11.0 0.00 0.00 0.00 33 1017.0
20260901224506 83 301 8.0 11.0 0.00 0.00 0.00 33 1017.0
20260901224335 83 260 9.0 0.0 0.00 0.00 0.00 33 1017.0
20260901224055 83 276 9.0 11.0 0.00 0.00 0.00 33 1017.0
20260901223830 83 283 9.0 0.0 0.00 0.00 0.00 33 1017.0
20260901223549 83 229 5.0 8.0 0.00 0.00 0.00 33 1017.0
20260901223331 83 267 8.0 0.0 0.00 0.00 0.00 33 1017.0
20260901223104 83 234 6.0 8.0 0.00 0.00 0.00 33 1017.0
20260901222827 83 214 2.0 0.0 0.00 0.00 0.00 33 1017.0
20260901222537 83 210 4.0 9.0 0.00 0.00 0.00 33 1017.0
20260901222345 83 224 11.0 0.0 0.00 0.00 0.00 33 1017.0
20260901222030 83 274 5.0 9.0 0.00 0.00 0.00 33 1017.0
20260901221840 83 269 7.0 0.0 0.00 0.00 0.00 33 1017.0
20260901221528 83 217 5.0 10.0 0.00 0.00 0.00 33 1017.0
20260901221335 84 279 3.0 0.0 0.00 0.00 0.00 33 1017.0
20260901221017 83 223 5.0 10.0 0.00 0.00 0.00 33 1017.0
20260901220830 84 229 8.0 0.0 0.00 0.00 0.00 33 1017.0
20260901220509 85 233 5.0 10.0 0.00 0.00 0.00 33 1017.0
20260901220326 86 296 7.0 0.0 0.00 0.00 0.00 33 1017.0
20260901220006 85 295 10.0 10.0 0.00 0.00 0.00 33 1017.0
20260901215843 86 304 4.0 0.0 0.00 0.00 0.00 33 1017.0
20260901215557 85 288 6.0 8.0 0.00 0.00 0.00 33 1017.0
20260901215502 85 278 5.0 8.0 0.00 0.00 0.00 33 1017.0
20260901215341 85 282 8.0 0.0 0.00 0.00 0.00 33 1017.0
20260901215053 85 283 6.0 11.0 0.00 0.00 0.00 33 1017.0
20260901214838 85 281 4.0 0.0 0.00 0.00 0.00 33 1017.0
20260901214548 85 275 8.0 12.0 0.00 0.00 0.00 33 1017.0
20260901214337 85 277 10.0 0.0 0.00 0.00 0.00 33 1017.0
20260901214027 84 274 7.0 12.0 0.00 0.00 0.00 33 1017.0
20260901213834 85 284 10.0 0.0 0.00 0.00 0.00 33 1017.0
20260901213519 84 278 5.0 9.0 0.00 0.00 0.00 33 1017.0
20260901213332 85 276 6.0 0.0 0.00 0.00 0.00 33 1017.0
20260901213015 85 270 7.0 9.0 0.00 0.00 0.00 33 1017.0
20260901212828 86 271 8.0 0.0 0.00 0.00 0.00 33 1017.0
20260901212506 85 292 4.0 9.0 0.00 0.00 0.00 33 1017.0
20260901212344 86 238 5.0 0.0 0.00 0.00 0.00 33 1017.0
20260901212057 85 282 7.0 9.0 0.00 0.00 0.00 33 1017.0
20260901211837 85 296 7.0 0.0 0.00 0.00 0.00 33 1017.0
20260901211553 85 292 6.0 10.0 0.00 0.00 0.00 33 1017.0
20260901211332 86 255 5.0 0.0 0.00 0.00 0.00 33 1017.0
20260901211044 85 294 7.0 10.0 0.00 0.00 0.00 33 1017.0
20260901210832 86 268 8.0 0.0 0.00 0.00 0.00 33 1017.0
20260901210522 86 265 10.0 10.0 0.00 0.00 0.00 33 1017.0
20260901210330 86 296 10.0 0.0 0.00 0.00 0.00 33 1017.0
20260901210011 86 293 7.0 9.0 0.00 0.00 0.00 33 1017.0
20260901205827 86 293 8.0 0.0 0.00 0.00 0.00 33 1017.0
20260901205506 86 274 8.0 8.0 0.00 0.00 0.00 33 1017.0
20260901205344 86 178 6.0 0.0 0.00 0.00 0.00 33 1017.0
20260901205056 86 290 5.0 8.0 0.00 0.00 0.00 33 1017.0
20260901205000 86 285 6.0 8.0 0.00 0.00 0.00 33 1017.0
20260901204840 86 292 11.0 0.0 0.00 0.00 0.00 33 1017.0
20260901204550 85 252 6.0 8.0 0.00 0.00 0.00 33 1017.0
20260901204336 86 288 8.0 0.0 0.00 0.00 0.00 33 1017.0
20260901204044 85 274 6.0 8.0 0.00 0.00 0.00 33 1017.0
20260901203832 86 290 8.0 0.0 0.00 0.00 0.00 33 1017.0
20260901203540 85 254 5.0 9.0 0.00 0.00 0.00 33 1017.0
20260901203330 86 302 3.0 0.0 0.00 0.00 0.00 33 1017.0
20260901203036 85 282 8.0 9.0 0.00 0.00 0.00 33 1017.0
20260901202848 85 251 5.0 0.0 0.00 0.00 0.00 33 1017.0
20260901202506 85 251 5.0 12.0 0.00 0.00 0.00 33 1017.0
20260901202343 85 282 7.0 0.0 0.00 0.00 0.00 33 1017.0
20260901202103 84 276 4.0 12.0 0.00 0.00 0.00 33 1017.0
20260901202003 84 273 5.0 12.0 0.00 0.00 0.00 33 1017.0
20260901201839 85 253 6.0 0.0 0.00 0.00 0.00 33 1017.0
20260901201554 84 268 9.0 12.0 0.00 0.00 0.00 33 1017.0
20260901201336 84 198 3.0 0.0 0.00 0.00 0.00 33 1017.0
20260901201045 84 260 4.0 8.0 0.00 0.00 0.00 33 1017.0
20260901200830 84 276 8.0 0.0 0.00 0.00 0.00 33 1017.0
20260901200537 84 282 6.0 8.0 0.00 0.00 0.00 33 1017.0
20260901200346 84 260 12.0 0.0 0.00 0.00 0.00 33 1017.0
20260901200050 85 277 7.0 8.0 0.00 0.00 0.00 33 1017.0
20260901195902 85 268 11.0 0.0 0.00 0.00 0.00 33 1017.0
20260901195505 84 274 2.0 7.0 0.00 0.00 0.00 33 1017.0
20260901195338 85 225 4.0 0.0 0.00 0.00 0.00 33 1017.0
20260901195058 85 245 4.0 7.0 0.00 0.00 0.00 33 1017.0
20260901195002 85 224 5.0 7.0 0.00 0.00 0.00 33 1017.0
20260901194835 85 290 6.0 0.0 0.00 0.00 0.00 33 1017.0
20260901194604 84 225 3.0 6.0 0.00 0.00 0.00 33 1017.0
20260901194331 85 295 10.0 0.0 0.00 0.00 0.00 33 1017.0
20260901194046 85 281 4.0 6.0 0.00 0.00 0.00 33 1017.0
20260901193829 85 199 4.0 0.0 0.00 0.00 0.00 33 1017.0
20260901193542 85 301 4.0 6.0 0.00 0.00 0.00 33 1017.0
20260901193349 85 219 6.0 0.0 0.00 0.00 0.00 33 1017.0
20260901193016 84 289 4.0 6.0 0.00 0.00 0.00 33 1017.0
20260901192829 84 268 4.0 0.0 0.00 0.00 0.00 33 1017.0
20260901192514 84 278 6.0 7.0 0.00 0.00 0.00 33 1017.0
20260901192326 84 298 6.0 0.0 0.00 0.00 0.00 33 1017.0
20260901192008 84 231 4.0 7.0 0.00 0.00 0.00 33 1017.0
20260901191844 85 213 7.0 0.0 0.00 0.00 0.00 33 1017.0
20260901191557 84 218 5.0 7.0 0.00 0.00 0.00 33 1017.0
20260901191337 85 268 7.0 0.0 0.00 0.00 0.00 33 1017.0
20260901191051 84 275 4.0 7.0 0.00 0.00 0.00 33 1017.0
20260901190856 85 261 4.0 0.0 0.00 0.00 0.00 33 1017.0
20260901190527 84 287 2.0 6.0 0.00 0.00 0.00 33 1017.0
20260901190333 85 261 6.0 0.0 0.00 0.00 0.00 33 1017.0
20260901190028 84 297 2.0 6.0 0.00 0.00 0.00 33 1017.0
20260901185829 84 302 3.0 0.0 0.00 0.00 0.00 33 1017.0
20260901185516 83 285 2.0 6.0 0.00 0.00 0.00 33 1017.0
20260901185327 83 310 4.0 0.0 0.00 0.00 0.00 33 1017.0
20260901185010 82 289 3.0 6.0 0.00 0.00 0.00 33 1017.0
20260901184904 83 188 4.0 0.0 0.00 0.00 0.00 33 1017.0
20260901184541 83 287 4.0 6.0 0.00 0.00 0.00 33 1017.0
20260901184401 83 263 4.0 0.0 0.00 0.00 0.00 33 1017.0
20260901184017 82 339 1.0 6.0 0.00 0.00 0.00 33 1017.0
20260901183839 82 286 2.0 0.0 0.00 0.00 0.00 33 1017.0
20260901183510 81 235 0.0 6.0 0.00 0.00 0.00 33 1017.0
20260901183334 82 230 5.0 0.0 0.00 0.00 0.00 33 1017.0
20260901183013 81 273 5.0 7.0 0.00 0.00 0.00 33 1017.0
20260901182832 82 328 1.0 0.0 0.00 0.00 0.00 33 1017.0
20260901182556 81 295 3.0 7.0 0.00 0.00 0.00 33 1017.0
20260901182329 82 297 6.0 0.0 0.00 0.00 0.00 33 1017.0
20260901182051 81 294 4.0 7.0 0.00 0.00 0.00 33 1017.0
20260901181825 81 284 4.0 0.0 0.00 0.00 0.00 33 1017.0
20260901181550 81 297 4.0 6.0 0.00 0.00 0.00 33 1017.0
20260901181340 81 264 6.0 0.0 0.00 0.00 0.00 33 1017.0
20260901181039 80 282 3.0 6.0 0.00 0.00 0.00 33 1017.0
20260901180838 81 305 2.0 0.0 0.00 0.00 0.00 33 1017.0
20260901180534 80 294 3.0 6.0 0.00 0.00 0.00 33 1017.0
20260901180334 80 273 1.0 0.0 0.00 0.00 0.00 33 1017.0
20260901180030 79 260 3.0 3.0 0.00 0.00 0.00 33 1017.0
20260901175854 80 258 6.0 0.0 0.00 0.00 0.00 33 1017.0
20260901175505 78 331 0.0 1.0 0.00 0.00 0.00 33 1017.0
20260901175330 79 331 0.0 0.0 0.00 0.00 0.00 33 1017.0
20260901175056 78 331 1.0 2.0 0.00 0.00 0.00 33 1017.0
20260901174831 78 285 2.0 0.0 0.00 0.00 0.00 33 1017.0
20260901174550 78 282 0.0 4.0 0.00 0.00 0.00 33 1017.0
20260901174347 78 282 4.0 0.0 0.00 0.00 0.00 33 1017.0
20260901174045 77 282 2.0 4.0 0.00 0.00 0.00 33 1017.0
20260901173905 78 282 0.0 0.0 0.00 0.00 0.00 33 1017.0
20260901173521 77 283 3.0 4.0 0.00 0.00 0.00 33 1017.0
20260901173340 77 291 5.0 0.0 0.00 0.00 0.00 33 1017.0
20260901173011 76 291 0.0 4.0 0.00 0.00 0.00 33 1017.0
20260901172836 76 291 2.0 0.0 0.00 0.00 0.00 33 1017.0
20260901172509 76 278 3.0 4.0 0.00 0.00 0.00 33 1017.0
20260901172332 76 272 5.0 0.0 0.00 0.00 0.00 33 1017.0
20260901172056 75 267 2.0 4.0 0.00 0.00 0.00 33 1017.0
20260901171829 75 268 2.0 0.0 0.00 0.00 0.00 33 1017.0
20260901171551 74 293 2.0 3.0 0.00 0.00 0.00 33 1017.0
20260901171345 74 293 7.0 0.0 0.00 0.00 0.00 33 1017.0
20260901171048 73 325 1.0 3.0 0.00 0.00 0.00 33 1017.0
20260901170842 74 312 0.0 0.0 0.00 0.00 0.00 33 1017.0
20260901170540 73 312 1.0 3.0 0.00 0.00 0.00 33 1017.0
20260901170339 73 312 0.0 0.0 0.00 0.00 0.00 33 1017.0
20260901170034 73 314 1.0 6.0 0.00 0.00 0.00 33 1017.0
20260901165835 74 313 3.0 0.0 0.00 0.00 0.00 33 1017.0
20260901165531 73 294 1.0 6.0 0.00 0.00 0.00 33 1017.0
20260901165335 74 294 0.0 0.0 0.00 0.00 0.00 33 1017.0
20260901165024 73 292 4.0 6.0 0.00 0.00 0.00 33 1017.0
20260901164832 73 277 3.0 0.0 0.00 0.00 0.00 33 1017.0
20260901164520 72 293 4.0 5.0 0.00 0.00 0.00 33 1017.0
20260901164410 73 306 3.0 0.0 0.00 0.00 0.00 33 1017.0
20260901164046 72 296 1.0 4.0 0.00 0.00 0.00 33 1017.0
20260901163843 72 299 1.0 0.0 0.00 0.00 0.00 33 1017.0
20260901163543 71 300 2.0 5.0 0.00 0.00 0.00 33 1017.0
20260901163403 72 310 3.0 0.0 0.00 0.00 0.00 33 1017.0
20260901163018 71 273 3.0 5.0 0.00 0.00 0.00 33 1017.0
20260901162838 71 275 2.0 0.0 0.00 0.00 0.00 33 1017.0
20260901162511 70 280 3.0 4.0 0.00 0.00 0.00 33 1017.0
20260901162334 71 310 5.0 0.0 0.00 0.00 0.00 33 1017.0
20260901162007 70 303 1.0 3.0 0.00 0.00 0.00 33 1017.0
20260901161833 70 303 3.0 0.0 0.00 0.00 0.00 33 1017.0
20260901161606 70 313 1.0 3.0 0.00 0.00 0.00 33 1017.0
20260901161503 69 313 2.0 3.0 0.00 0.00 0.00 33 1017.0
20260901161334 70 313 2.0 0.0 0.00 0.00 0.00 33 1017.0
20260901161056 69 313 3.0 3.0 0.00 0.00 0.00 33 1017.0
20260901160833 70 314 4.0 0.0 0.00 0.00 0.00 33 1017.0
20260901160551 69 310 2.0 5.0 0.00 0.00 0.00 33 1017.0
20260901160329 69 304 5.0 0.0 0.00 0.00 0.00 33 1017.0
20260901160046 68 302 2.0 5.0 0.00 0.00 0.00 33 1017.0
20260901155844 69 302 5.0 0.0 0.00 0.00 0.00 33 1017.0
20260901155538 68 295 3.0 5.0 0.00 0.00 0.00 33 1017.0
20260901155340 68 307 5.0 0.0 0.00 0.00 0.00 33 1017.0
20260901155033 67 328 0.0 1.0 0.00 0.00 0.00 33 1017.0
20260901154840 68 328 0.0 0.0 0.00 0.00 0.00 33 1017.0
20260901154524 67 328 1.0 1.0 0.00 0.00 0.00 33 1017.0
20260901154355 68 329 2.0 0.0 0.00 0.00 0.00 33 1017.0
20260901154057 67 328 0.0 2.0 0.00 0.00 0.00 33 1017.0
20260901154002 67 328 0.0 2.0 0.00 0.00 0.00 33 1017.0
20260901153830 67 329 0.0 0.0 0.00 0.00 0.00 33 1017.0
20260901153550 67 328 1.0 2.0 0.00 0.00 0.00 33 1017.0
20260901153326 67 328 0.0 0.0 0.00 0.00 0.00 33 1017.0
20260901153045 66 328 0.0 0.0 0.00 0.00 0.00 33 1017.0
20260901152844 67 328 0.0 0.0 0.00 0.00 0.00 33 1017.0
20260901152517 66 329 0.0 0.0 0.00 0.00 0.00 33 1017.0
20260901152339 66 329 0.0 0.0 0.00 0.00 0.00 33 1017.0
20260901152015 66 329 0.0 0.0 0.00 0.00 0.00 33 1017.0
20260901151856 66 329 0.0 0.0 0.00 0.00 0.00 33 1017.0
20260901151542 66 329 0.0 0.0 0.00 0.00 0.00 33 1017.0
20260901151332 66 329 0.0 0.0 0.00 0.00 0.00 33 1017.0
20260901151037 65 329 0.0 0.0 0.00 0.00 0.00 33 1017.0
20260901150829 65 329 0.0 0.0 0.00 0.00 0.00 33 1017.0
20260901150533 65 329 0.0 0.0 0.00 0.00 0.00 33 1017.0
20260901150348 65 329 0.0 0.0 0.00 0.00 0.00 33 1017.0
20260901150028 64 329 0.0 3.0 0.00 0.00 0.00 33 1017.0
20260901145845 65 329 0.0 0.0 0.00 0.00 0.00 33 1017.0
20260901145521 64 329 0.0 3.0 0.00 0.00 0.00 33 1017.0
20260901145340 65 330 2.0 0.0 0.00 0.00 0.00 33 1017.0
20260901145015 64 315 0.0 0.0 0.00 0.00 0.00 33 1017.0
20260901144835 65 311 0.0 0.0 0.00 0.00 0.00 33 1017.0
20260901092552 64 276 0.0 0.0 0.00 0.00 0.00 33 1017.0
20260901092340 65 276 0.0 0.0 0.00 0.00 0.00 33 1017.0
20260901092045 64 276 0.0 0.0 0.00 0.00 0.00 33 1017.0
20260901091833 65 276 0.0 0.0 0.00 0.00 0.00 33 1017.0
20260901091557 65 276 0.0 0.0 0.00 0.00 0.00 33 1017.0
20260901091330 65 276 0.0 0.0 0.00 0.00 0.00 33 1017.0
20260901091037 65 276 0.0 0.0 0.00 0.00 0.00 33 1017.0
20260901090828 65 276 0.0 0.0 0.00 0.00 0.00 33 1017.0
20260901090531 65 276 0.0 0.0 0.00 0.00 0.00 33 1017.0
20260901090346 65 276 0.0 0.0 0.00 0.00 0.00 33 1017.0
20260901090121 65 276 0.0 0.0 0.00 0.00 0.00 33 1017.0
20260901090041 70 238 1.0 0.0 0.00 0.00 0.00 33 1017.0